contact:dominique.lefevre@mio.osupytheas.fr, maurice.libes@osupytheas.fr, didier.mallarino@osupytheas.fr
Project:EMSO http://www.emso-fr.org/EMSO-France
Depth: 2436.0 m
Title:EMSO Ligure Ouest : Data MII capteur CSTAR
DateTime,Latitude,Longitude,Instrument_Serial,Reference_Counts,Signal_Counts,Corrected_Signal_raw_counts,Calculated_Beam_c_inverse_meters,Internal_thermistor_counts
DateTime,Latitude,Longitude,Instrument_Serial,Reference_Counts,Signal_Counts,Corrected_Signal_raw_counts,Calculated_Beam_c_inverse_meters,Internal_thermistor_counts
2023-11-11T00:01:09,42.805,6.029,CST-1368DR,4112,4376,11277,01.302,553
2023-11-11T00:04:10,42.805,6.029,CST-1368DR,4112,4374,11272,01.304,553
2023-11-11T00:07:12,42.805,6.029,CST-1368DR,4112,4374,11274,01.303,553
2023-11-11T00:10:13,42.805,6.029,CST-1368DR,4112,4376,11277,01.302,553
2023-11-11T00:13:15,42.805,6.029,CST-1368DR,4112,4374,11274,01.303,553
2023-11-11T00:16:16,42.805,6.029,CST-1368DR,4112,4376,11277,01.302,553
2023-11-11T00:19:18,42.805,6.029,CST-1368DR,4112,4375,11276,01.302,553
2023-11-11T00:22:20,42.805,6.029,CST-1368DR,4112,4376,11278,01.302,553
2023-11-11T00:25:21,42.805,6.029,CST-1368DR,4112,4375,11274,01.303,553
2023-11-11T00:28:23,42.805,6.029,CST-1368DR,4112,4376,11278,01.302,553
2023-11-11T00:31:24,42.805,6.029,CST-1368DR,4112,4376,11278,01.302,553
2023-11-11T00:34:26,42.805,6.029,CST-1368DR,4112,4376,11278,01.302,553
2023-11-11T00:37:27,42.805,6.029,CST-1368DR,4112,4376,11277,01.302,553
2023-11-11T00:40:29,42.805,6.029,CST-1368DR,4112,4375,11276,01.302,553
2023-11-11T00:43:31,42.805,6.029,CST-1368DR,4112,4376,11279,01.301,553
2023-11-11T00:46:32,42.805,6.029,CST-1368DR,4112,4375,11276,01.302,553
2023-11-11T00:49:34,42.805,6.029,CST-1368DR,4112,4376,11279,01.301,553
2023-11-11T00:52:35,42.805,6.029,CST-1368DR,4112,4374,11272,01.304,553
2023-11-11T00:55:37,42.805,6.029,CST-1368DR,4112,4374,11272,01.304,553
2023-11-11T00:58:39,42.805,6.029,CST-1368DR,4112,4376,11277,01.302,553
2023-11-11T01:01:40,42.805,6.029,CST-1368DR,4112,4375,11274,01.303,553
2023-11-11T01:04:42,42.805,6.029,CST-1368DR,4112,4375,11276,01.302,553
2023-11-11T01:07:43,42.805,6.029,CST-1368DR,4112,4374,11272,01.304,553
2023-11-11T01:10:45,42.805,6.029,CST-1368DR,4112,4374,11274,01.303,553
2023-11-11T01:13:46,42.805,6.029,CST-1368DR,4112,4376,11278,01.302,553
2023-11-11T01:16:48,42.805,6.029,CST-1368DR,4112,4376,11279,01.301,553
2023-11-11T01:19:50,42.805,6.029,CST-1368DR,4112,4375,11276,01.302,553
2023-11-11T01:22:51,42.805,6.029,CST-1368DR,4112,4376,11277,01.302,552
2023-11-11T01:25:53,42.805,6.029,CST-1368DR,4112,4375,11274,01.303,553
2023-11-11T01:28:54,42.805,6.029,CST-1368DR,4112,4376,11279,01.301,553
2023-11-11T01:31:56,42.805,6.029,CST-1368DR,4112,4377,11281,01.301,553
2023-11-11T01:34:57,42.805,6.029,CST-1368DR,4112,4376,11277,01.302,553
2023-11-11T01:37:59,42.805,6.029,CST-1368DR,4112,4376,11277,01.302,553
2023-11-11T01:41:01,42.805,6.029,CST-1368DR,4112,4375,11275,01.303,553
2023-11-11T01:44:02,42.805,6.029,CST-1368DR,4112,4376,11277,01.302,552
2023-11-11T01:47:04,42.805,6.029,CST-1368DR,4112,4377,11281,01.301,553
2023-11-11T01:50:05,42.805,6.029,CST-1368DR,4112,4376,11279,01.301,552
2023-11-11T01:53:07,42.805,6.029,CST-1368DR,4112,4376,11278,01.302,552
2023-11-11T01:56:09,42.805,6.029,CST-1368DR,4112,4376,11279,01.301,553
2023-11-11T01:59:10,42.805,6.029,CST-1368DR,4112,4376,11278,01.302,552
2023-11-11T02:02:12,42.805,6.029,CST-1368DR,4112,4376,11278,01.302,553
2023-11-11T02:05:13,42.805,6.029,CST-1368DR,4112,4377,11281,01.301,553
2023-11-11T02:08:15,42.805,6.029,CST-1368DR,4112,4375,11275,01.303,553
2023-11-11T02:11:16,42.805,6.029,CST-1368DR,4112,4375,11276,01.302,553
2023-11-11T02:14:18,42.805,6.029,CST-1368DR,4112,4376,11279,01.301,553
2023-11-11T02:17:20,42.805,6.029,CST-1368DR,4112,4376,11277,01.302,553
2023-11-11T02:20:21,42.805,6.029,CST-1368DR,4112,4378,11282,01.300,553
2023-11-11T02:23:23,42.805,6.029,CST-1368DR,4112,4376,11279,01.301,553
2023-11-11T02:26:24,42.805,6.029,CST-1368DR,4112,4377,11279,01.301,553
2023-11-11T02:29:26,42.805,6.029,CST-1368DR,4112,4377,11279,01.301,553
2023-11-11T02:32:27,42.805,6.029,CST-1368DR,4112,4375,11276,01.302,553
2023-11-11T02:35:29,42.805,6.029,CST-1368DR,4112,4376,11277,01.302,553
2023-11-11T02:38:31,42.805,6.029,CST-1368DR,4112,4376,11277,01.302,553
2023-11-11T02:41:32,42.805,6.029,CST-1368DR,4112,4376,11277,01.302,553
2023-11-11T02:44:34,42.805,6.029,CST-1368DR,4112,4376,11278,01.302,553
2023-11-11T02:47:35,42.805,6.029,CST-1368DR,4112,4376,11277,01.302,553
2023-11-11T02:50:37,42.805,6.029,CST-1368DR,4112,4375,11274,01.303,553
2023-11-11T02:53:39,42.805,6.029,CST-1368DR,4112,4376,11277,01.302,553
2023-11-11T02:56:40,42.805,6.029,CST-1368DR,4112,4375,11275,01.303,553
2023-11-11T02:59:42,42.805,6.029,CST-1368DR,4112,4376,11279,01.301,553
2023-11-11T03:02:43,42.805,6.029,CST-1368DR,4112,4376,11277,01.302,553
2023-11-11T03:05:45,42.805,6.029,CST-1368DR,4112,4378,11282,01.300,552
2023-11-11T03:08:46,42.805,6.029,CST-1368DR,4112,4376,11279,01.301,553
2023-11-11T03:11:48,42.805,6.029,CST-1368DR,4112,4377,11281,01.301,552
2023-11-11T03:14:50,42.805,6.029,CST-1368DR,4112,4376,11278,01.302,553
2023-11-11T03:17:51,42.805,6.029,CST-1368DR,4112,4376,11279,01.301,553
2023-11-11T03:20:53,42.805,6.029,CST-1368DR,4112,4377,11279,01.301,553
2023-11-11T03:23:54,42.805,6.029,CST-1368DR,4112,4376,11279,01.301,553
2023-11-11T03:26:56,42.805,6.029,CST-1368DR,4112,4377,11279,01.301,553
2023-11-11T03:29:57,42.805,6.029,CST-1368DR,4112,4376,11277,01.302,552
2023-11-11T03:32:59,42.805,6.029,CST-1368DR,4112,4377,11281,01.301,553
2023-11-11T03:36:01,42.805,6.029,CST-1368DR,4112,4376,11278,01.302,553
2023-11-11T03:39:02,42.805,6.029,CST-1368DR,4112,4375,11276,01.302,553
2023-11-11T03:42:04,42.805,6.029,CST-1368DR,4112,4376,11277,01.302,553
2023-11-11T03:45:05,42.805,6.029,CST-1368DR,4112,4377,11279,01.301,553
2023-11-11T03:48:07,42.805,6.029,CST-1368DR,4112,4377,11281,01.301,553
2023-11-11T03:51:09,42.805,6.029,CST-1368DR,4112,4376,11278,01.302,553
2023-11-11T03:54:10,42.805,6.029,CST-1368DR,4112,4376,11278,01.302,553
2023-11-11T03:57:12,42.805,6.029,CST-1368DR,4112,4376,11279,01.301,553
2023-11-11T04:00:13,42.805,6.029,CST-1368DR,4112,4377,11281,01.301,553
2023-11-11T04:03:15,42.805,6.029,CST-1368DR,4112,4375,11276,01.302,553
2023-11-11T04:06:16,42.805,6.029,CST-1368DR,4112,4377,11281,01.301,553
2023-11-11T04:09:18,42.805,6.029,CST-1368DR,4112,4376,11277,01.302,553
2023-11-11T04:12:20,42.805,6.029,CST-1368DR,4112,4376,11279,01.301,553
2023-11-11T04:15:21,42.805,6.029,CST-1368DR,4112,4377,11279,01.301,553
2023-11-11T04:18:23,42.805,6.029,CST-1368DR,4112,4376,11277,01.302,553
2023-11-11T04:21:24,42.805,6.029,CST-1368DR,4112,4376,11278,01.302,553
2023-11-11T04:24:26,42.805,6.029,CST-1368DR,4112,4376,11278,01.302,553
2023-11-11T04:27:27,42.805,6.029,CST-1368DR,4112,4376,11277,01.302,553
2023-11-11T04:30:29,42.805,6.029,CST-1368DR,4112,4375,11276,01.302,553
2023-11-11T04:33:31,42.805,6.029,CST-1368DR,4112,4376,11279,01.301,553
2023-11-11T04:36:32,42.805,6.029,CST-1368DR,4112,4376,11278,01.302,553
2023-11-11T04:39:34,42.805,6.029,CST-1368DR,4112,4375,11276,01.302,553
2023-11-11T04:42:35,42.805,6.029,CST-1368DR,4112,4375,11275,01.303,553
2023-11-11T04:45:37,42.805,6.029,CST-1368DR,4112,4375,11274,01.303,553
2023-11-11T04:48:39,42.805,6.029,CST-1368DR,4112,4375,11274,01.303,553
2023-11-11T04:51:40,42.805,6.029,CST-1368DR,4112,4374,11273,01.304,553
2023-11-11T04:54:42,42.805,6.029,CST-1368DR,4112,4374,11274,01.303,553
2023-11-11T04:57:43,42.805,6.029,CST-1368DR,4112,4374,11274,01.303,553
2023-11-11T05:00:45,42.805,6.029,CST-1368DR,4112,4373,11270,01.305,553
2023-11-11T05:03:46,42.805,6.029,CST-1368DR,4112,4375,11275,01.303,553
2023-11-11T05:06:48,42.805,6.029,CST-1368DR,4112,4375,11274,01.303,553
2023-11-11T05:09:50,42.805,6.029,CST-1368DR,4112,4374,11272,01.304,553
2023-11-11T05:12:51,42.805,6.029,CST-1368DR,4112,4374,11274,01.303,553
2023-11-11T05:15:53,42.805,6.029,CST-1368DR,4112,4374,11274,01.303,553
2023-11-11T05:18:54,42.805,6.029,CST-1368DR,4112,4375,11276,01.302,553
2023-11-11T05:21:56,42.805,6.029,CST-1368DR,4112,4375,11274,01.303,553
2023-11-11T05:24:57,42.805,6.029,CST-1368DR,4112,4374,11272,01.304,553
2023-11-11T05:27:59,42.805,6.029,CST-1368DR,4112,4375,11275,01.303,553
2023-11-11T05:31:01,42.805,6.029,CST-1368DR,4112,4374,11273,01.304,553
2023-11-11T05:34:02,42.805,6.029,CST-1368DR,4112,4375,11275,01.303,553
2023-11-11T05:37:04,42.805,6.029,CST-1368DR,4112,4374,11272,01.304,553
2023-11-11T05:40:05,42.805,6.029,CST-1368DR,4112,4376,11277,01.302,553
2023-11-11T05:43:07,42.805,6.029,CST-1368DR,4112,4373,11269,01.305,553
2023-11-11T05:46:08,42.805,6.029,CST-1368DR,4112,4372,11268,01.305,553
2023-11-11T05:49:10,42.805,6.029,CST-1368DR,4112,4374,11272,01.304,553
2023-11-11T05:52:12,42.805,6.029,CST-1368DR,4112,4371,11266,01.306,553
2023-11-11T05:55:13,42.805,6.029,CST-1368DR,4112,4374,11274,01.303,553
2023-11-11T05:58:15,42.805,6.029,CST-1368DR,4112,4375,11276,01.302,553
2023-11-11T06:01:16,42.805,6.029,CST-1368DR,4112,4374,11272,01.304,553
2023-11-11T06:04:18,42.805,6.029,CST-1368DR,4112,4372,11268,01.305,553
2023-11-11T06:07:20,42.805,6.029,CST-1368DR,4112,4373,11269,01.305,553
2023-11-11T06:10:21,42.805,6.029,CST-1368DR,4112,4375,11275,01.303,553
2023-11-11T06:13:23,42.805,6.029,CST-1368DR,4112,4375,11275,01.303,553
2023-11-11T06:16:24,42.805,6.029,CST-1368DR,4112,4375,11274,01.303,553
2023-11-11T06:19:26,42.805,6.029,CST-1368DR,4112,4374,11272,01.304,553
2023-11-11T06:22:27,42.805,6.029,CST-1368DR,4112,4375,11276,01.302,553
2023-11-11T06:25:29,42.805,6.029,CST-1368DR,4112,4374,11272,01.304,553
2023-11-11T06:28:31,42.805,6.029,CST-1368DR,4112,4374,11272,01.304,553
2023-11-11T06:31:32,42.805,6.029,CST-1368DR,4112,4373,11270,01.305,553
2023-11-11T06:34:34,42.805,6.029,CST-1368DR,4112,4374,11274,01.303,553
2023-11-11T06:37:35,42.805,6.029,CST-1368DR,4112,4374,11274,01.303,553
2023-11-11T06:40:37,42.805,6.029,CST-1368DR,4112,4374,11272,01.304,553
2023-11-11T06:43:38,42.805,6.029,CST-1368DR,4112,4374,11272,01.304,553
2023-11-11T06:46:40,42.805,6.029,CST-1368DR,4112,4375,11274,01.303,553
2023-11-11T06:49:42,42.805,6.029,CST-1368DR,4112,4373,11270,01.305,553
2023-11-11T06:52:43,42.805,6.029,CST-1368DR,4112,4374,11272,01.304,553
2023-11-11T06:55:45,42.805,6.029,CST-1368DR,4112,4373,11270,01.305,553
2023-11-11T06:58:46,42.805,6.029,CST-1368DR,4112,4374,11274,01.303,553
2023-11-11T07:01:48,42.805,6.029,CST-1368DR,4112,4375,11274,01.303,553
2023-11-11T07:04:50,42.805,6.029,CST-1368DR,4112,4373,11270,01.305,553
2023-11-11T07:07:51,42.805,6.029,CST-1368DR,4112,4373,11270,01.305,553
2023-11-11T07:10:53,42.805,6.029,CST-1368DR,4112,4373,11270,01.305,553
2023-11-11T07:13:54,42.805,6.029,CST-1368DR,4112,4373,11270,01.305,553
2023-11-11T07:16:56,42.805,6.029,CST-1368DR,4112,4372,11268,01.305,553
2023-11-11T07:19:57,42.805,6.029,CST-1368DR,4112,4374,11272,01.304,553
2023-11-11T07:22:59,42.805,6.029,CST-1368DR,4112,4374,11272,01.304,553
2023-11-11T07:26:01,42.805,6.029,CST-1368DR,4112,4374,11273,01.304,553
2023-11-11T07:29:02,42.805,6.029,CST-1368DR,4112,4373,11270,01.305,553
2023-11-11T07:32:04,42.805,6.029,CST-1368DR,4112,4374,11272,01.304,553
2023-11-11T07:35:05,42.805,6.029,CST-1368DR,4112,4374,11272,01.304,553
2023-11-11T07:38:07,42.805,6.029,CST-1368DR,4112,4373,11269,01.305,553
2023-11-11T07:41:08,42.805,6.029,CST-1368DR,4112,4373,11270,01.305,553
2023-11-11T07:44:10,42.805,6.029,CST-1368DR,4112,4373,11270,01.305,553
2023-11-11T07:47:12,42.805,6.029,CST-1368DR,4112,4374,11273,01.304,552
2023-11-11T07:50:13,42.805,6.029,CST-1368DR,4112,4374,11272,01.304,553
2023-11-11T07:53:15,42.805,6.029,CST-1368DR,4112,4375,11275,01.303,553
2023-11-11T07:56:16,42.805,6.029,CST-1368DR,4112,4374,11272,01.304,553
2023-11-11T07:59:18,42.805,6.029,CST-1368DR,4112,4375,11274,01.303,553
2023-11-11T08:02:20,42.805,6.029,CST-1368DR,4112,4374,11274,01.303,553
2023-11-11T08:05:21,42.805,6.029,CST-1368DR,4112,4373,11269,01.305,553
2023-11-11T08:08:23,42.805,6.029,CST-1368DR,4112,4372,11268,01.305,553
2023-11-11T08:11:24,42.805,6.029,CST-1368DR,4112,4373,11270,01.305,553
2023-11-11T08:14:26,42.805,6.029,CST-1368DR,4112,4374,11273,01.304,553
2023-11-11T08:17:27,42.805,6.029,CST-1368DR,4112,4373,11270,01.305,553
2023-11-11T08:20:29,42.805,6.029,CST-1368DR,4112,4373,11270,01.305,553
2023-11-11T08:23:31,42.805,6.029,CST-1368DR,4112,4374,11273,01.304,553
2023-11-11T08:26:32,42.805,6.029,CST-1368DR,4112,4373,11270,01.305,553
2023-11-11T08:29:34,42.805,6.029,CST-1368DR,4112,4373,11270,01.305,553
2023-11-11T08:32:35,42.805,6.029,CST-1368DR,4112,4374,11272,01.304,553
2023-11-11T08:35:37,42.805,6.029,CST-1368DR,4112,4372,11268,01.305,553
2023-11-11T08:38:38,42.805,6.029,CST-1368DR,4112,4373,11270,01.305,553
2023-11-11T08:41:40,42.805,6.029,CST-1368DR,4112,4374,11272,01.304,553
2023-11-11T08:44:42,42.805,6.029,CST-1368DR,4112,4374,11272,01.304,553
2023-11-11T08:47:43,42.805,6.029,CST-1368DR,4112,4373,11269,01.305,553
2023-11-11T08:50:45,42.805,6.029,CST-1368DR,4112,4373,11269,01.305,553
2023-11-11T08:53:46,42.805,6.029,CST-1368DR,4112,4374,11272,01.304,553
2023-11-11T08:56:48,42.805,6.029,CST-1368DR,4112,4374,11272,01.304,553
2023-11-11T08:59:50,42.805,6.029,CST-1368DR,4112,4372,11267,01.306,553
2023-11-11T09:02:51,42.805,6.029,CST-1368DR,4112,4372,11267,01.306,553
2023-11-11T09:05:53,42.805,6.029,CST-1368DR,4112,4375,11275,01.303,553
2023-11-11T09:08:54,42.805,6.029,CST-1368DR,4112,4380,11287,01.299,553
2023-11-11T09:11:56,42.805,6.029,CST-1368DR,4112,4374,11273,01.304,553
2023-11-11T09:14:57,42.805,6.029,CST-1368DR,4112,4373,11270,01.305,553
2023-11-11T09:17:59,42.805,6.029,CST-1368DR,4112,4376,11277,01.302,553
2023-11-11T09:21:01,42.805,6.029,CST-1368DR,4112,4375,11275,01.303,553
2023-11-11T09:24:02,42.805,6.029,CST-1368DR,4112,4375,11275,01.303,553
2023-11-11T09:27:04,42.805,6.029,CST-1368DR,4112,4376,11278,01.302,553
2023-11-11T09:30:05,42.805,6.029,CST-1368DR,4112,4375,11276,01.302,553
2023-11-11T09:33:07,42.805,6.029,CST-1368DR,4112,4374,11273,01.304,553
2023-11-11T09:36:08,42.805,6.029,CST-1368DR,4112,4375,11274,01.303,553
2023-11-11T09:39:10,42.805,6.029,CST-1368DR,4112,4374,11272,01.304,553
2023-11-11T09:42:12,42.805,6.029,CST-1368DR,4112,4376,11277,01.302,553
2023-11-11T09:45:13,42.805,6.029,CST-1368DR,4112,4375,11275,01.303,552
2023-11-11T09:48:15,42.805,6.029,CST-1368DR,4112,4375,11274,01.303,553
2023-11-11T09:51:16,42.805,6.029,CST-1368DR,4112,4373,11269,01.305,553
2023-11-11T09:54:18,42.805,6.029,CST-1368DR,4112,4372,11268,01.305,553
2023-11-11T09:57:20,42.805,6.029,CST-1368DR,4112,4373,11270,01.305,553
2023-11-11T10:00:21,42.805,6.029,CST-1368DR,4112,4372,11268,01.305,553
2023-11-11T10:03:23,42.805,6.029,CST-1368DR,4112,4373,11269,01.305,553
2023-11-11T10:06:24,42.805,6.029,CST-1368DR,4112,4373,11270,01.305,553
2023-11-11T10:09:26,42.805,6.029,CST-1368DR,4112,4372,11268,01.305,553
2023-11-11T10:12:27,42.805,6.029,CST-1368DR,4112,4372,11268,01.305,553
2023-11-11T10:15:29,42.805,6.029,CST-1368DR,4112,4372,11268,01.305,553
2023-11-11T10:18:31,42.805,6.029,CST-1368DR,4112,4373,11270,01.305,553
2023-11-11T10:21:32,42.805,6.029,CST-1368DR,4112,4374,11272,01.304,553
2023-11-11T10:24:34,42.805,6.029,CST-1368DR,4112,4373,11269,01.305,553
2023-11-11T10:27:35,42.805,6.029,CST-1368DR,4112,4374,11273,01.304,553
2023-11-11T10:30:37,42.805,6.029,CST-1368DR,4112,4374,11273,01.304,553
2023-11-11T10:33:38,42.805,6.029,CST-1368DR,4112,4374,11273,01.304,553
2023-11-11T10:36:40,42.805,6.029,CST-1368DR,4112,4373,11270,01.305,553
2023-11-11T10:39:42,42.805,6.029,CST-1368DR,4112,4376,11277,01.302,553
2023-11-11T10:42:43,42.805,6.029,CST-1368DR,4112,4373,11270,01.305,553
2023-11-11T10:45:45,42.805,6.029,CST-1368DR,4112,4375,11276,01.302,553
2023-11-11T10:48:46,42.805,6.029,CST-1368DR,4112,4374,11273,01.304,553
2023-11-11T10:51:48,42.805,6.029,CST-1368DR,4112,4376,11279,01.301,553
2023-11-11T10:54:50,42.805,6.029,CST-1368DR,4112,4374,11273,01.304,553
2023-11-11T10:57:51,42.805,6.029,CST-1368DR,4112,4374,11272,01.304,552
2023-11-11T11:00:53,42.805,6.029,CST-1368DR,4112,4374,11272,01.304,552
2023-11-11T11:03:54,42.805,6.029,CST-1368DR,4112,4369,11260,01.308,553
2023-11-11T11:06:56,42.805,6.029,CST-1368DR,4112,4374,11273,01.304,553
2023-11-11T11:09:57,42.805,6.029,CST-1368DR,4112,4375,11274,01.303,553
2023-11-11T11:12:59,42.805,6.029,CST-1368DR,4112,4373,11270,01.305,553
2023-11-11T11:16:01,42.805,6.029,CST-1368DR,4112,4375,11276,01.302,553
2023-11-11T11:19:02,42.805,6.029,CST-1368DR,4112,4376,11277,01.302,553
2023-11-11T11:22:04,42.805,6.029,CST-1368DR,4112,4372,11268,01.305,553
2023-11-11T11:25:05,42.805,6.029,CST-1368DR,4112,4374,11274,01.303,553
2023-11-11T11:28:07,42.805,6.029,CST-1368DR,4112,4372,11268,01.305,553
2023-11-11T11:31:10,42.805,6.029,CST-1368DR,4112,4373,11270,01.305,553
2023-11-11T11:34:12,42.805,6.029,CST-1368DR,4112,4374,11272,01.304,553
2023-11-11T11:37:14,42.805,6.029,CST-1368DR,4112,4374,11273,01.304,553
2023-11-11T11:40:15,42.805,6.029,CST-1368DR,4112,4374,11274,01.303,553
2023-11-11T11:43:17,42.805,6.029,CST-1368DR,4112,4371,11265,01.306,553
2023-11-11T11:46:18,42.805,6.029,CST-1368DR,4112,4375,11276,01.302,553
2023-11-11T11:49:20,42.805,6.029,CST-1368DR,4112,4376,11278,01.302,553
2023-11-11T11:52:22,42.805,6.029,CST-1368DR,4112,4374,11272,01.304,553
2023-11-11T11:55:23,42.805,6.029,CST-1368DR,4112,4375,11276,01.302,553
2023-11-11T11:58:25,42.805,6.029,CST-1368DR,4112,4374,11273,01.304,553
2023-11-11T12:01:26,42.805,6.029,CST-1368DR,4112,4374,11274,01.303,553
2023-11-11T12:04:28,42.805,6.029,CST-1368DR,4112,4375,11274,01.303,553
2023-11-11T12:07:29,42.805,6.029,CST-1368DR,4112,4375,11274,01.303,553
2023-11-11T12:10:31,42.805,6.029,CST-1368DR,4112,4372,11267,01.306,553
2023-11-11T12:13:33,42.805,6.029,CST-1368DR,4112,4374,11272,01.304,552
2023-11-11T12:16:34,42.805,6.029,CST-1368DR,4112,4374,11272,01.304,553
2023-11-11T12:19:36,42.805,6.029,CST-1368DR,4112,4373,11270,01.305,553
2023-11-11T12:22:37,42.805,6.029,CST-1368DR,4112,4374,11272,01.304,553
2023-11-11T12:25:39,42.805,6.029,CST-1368DR,4112,4375,11275,01.303,553
2023-11-11T12:28:40,42.805,6.029,CST-1368DR,4112,4371,11265,01.306,553
2023-11-11T12:31:42,42.805,6.029,CST-1368DR,4112,4373,11270,01.305,553
2023-11-11T12:34:44,42.805,6.029,CST-1368DR,4112,4372,11267,01.306,553
2023-11-11T12:37:45,42.805,6.029,CST-1368DR,4112,4372,11267,01.306,553
2023-11-11T12:40:47,42.805,6.029,CST-1368DR,4112,4372,11268,01.305,553
2023-11-11T12:43:48,42.805,6.029,CST-1368DR,4112,4373,11270,01.305,553
2023-11-11T12:46:50,42.805,6.029,CST-1368DR,4112,4371,11266,01.306,553
2023-11-11T12:49:52,42.805,6.029,CST-1368DR,4112,4372,11267,01.306,553
2023-11-11T12:52:53,42.805,6.029,CST-1368DR,4112,4372,11267,01.306,553
2023-11-11T12:55:55,42.805,6.029,CST-1368DR,4112,4374,11272,01.304,553
2023-11-11T12:58:56,42.805,6.029,CST-1368DR,4112,4373,11270,01.305,553
2023-11-11T13:01:58,42.805,6.029,CST-1368DR,4112,4372,11267,01.306,553
2023-11-11T13:04:59,42.805,6.029,CST-1368DR,4112,4373,11269,01.305,553
2023-11-11T13:08:01,42.805,6.029,CST-1368DR,4112,4374,11272,01.304,553
2023-11-11T13:11:03,42.805,6.029,CST-1368DR,4112,4370,11263,01.307,553
2023-11-11T13:14:04,42.805,6.029,CST-1368DR,4112,4371,11266,01.306,553
2023-11-11T13:17:06,42.805,6.029,CST-1368DR,4112,4372,11267,01.306,553
2023-11-11T13:20:07,42.805,6.029,CST-1368DR,4112,4372,11267,01.306,553
2023-11-11T13:23:09,42.805,6.029,CST-1368DR,4112,4372,11267,01.306,553
2023-11-11T13:26:11,42.805,6.029,CST-1368DR,4112,4371,11266,01.306,553
2023-11-11T13:29:12,42.805,6.029,CST-1368DR,4112,4372,11267,01.306,553
2023-11-11T13:32:14,42.805,6.029,CST-1368DR,4112,4371,11265,01.306,553
2023-11-11T13:35:15,42.805,6.029,CST-1368DR,4112,4372,11267,01.306,553
2023-11-11T13:38:17,42.805,6.029,CST-1368DR,4112,4372,11267,01.306,553
2023-11-11T13:41:19,42.805,6.029,CST-1368DR,4112,4372,11267,01.306,553
2023-11-11T13:44:20,42.805,6.029,CST-1368DR,4112,4370,11262,01.307,553
2023-11-11T13:47:22,42.805,6.029,CST-1368DR,4112,4371,11266,01.306,553
2023-11-11T13:50:23,42.805,6.029,CST-1368DR,4112,4371,11264,01.307,553
2023-11-11T13:53:25,42.805,6.029,CST-1368DR,4112,4370,11263,01.307,553
2023-11-11T13:56:26,42.805,6.029,CST-1368DR,4112,4371,11264,01.307,553
2023-11-11T13:59:28,42.805,6.029,CST-1368DR,4112,4370,11261,01.308,553
2023-11-11T14:02:30,42.805,6.029,CST-1368DR,4112,4372,11267,01.306,553
2023-11-11T14:05:31,42.805,6.029,CST-1368DR,4112,4372,11267,01.306,553
2023-11-11T14:08:33,42.805,6.029,CST-1368DR,4112,4371,11264,01.307,553
2023-11-11T14:11:34,42.805,6.029,CST-1368DR,4112,4370,11261,01.308,553
2023-11-11T14:14:36,42.805,6.029,CST-1368DR,4112,4370,11263,01.307,553
2023-11-11T14:17:37,42.805,6.029,CST-1368DR,4112,4370,11262,01.307,553
2023-11-11T14:20:39,42.805,6.029,CST-1368DR,4112,4370,11262,01.307,553
2023-11-11T14:23:41,42.805,6.029,CST-1368DR,4112,4370,11263,01.307,553
2023-11-11T14:26:42,42.805,6.029,CST-1368DR,4112,4370,11261,01.308,553
2023-11-11T14:29:44,42.805,6.029,CST-1368DR,4112,4371,11265,01.306,553
2023-11-11T14:32:45,42.805,6.029,CST-1368DR,4112,4370,11263,01.307,553
2023-11-11T14:35:47,42.805,6.029,CST-1368DR,4112,4371,11264,01.307,552
2023-11-11T14:38:49,42.805,6.029,CST-1368DR,4112,4371,11265,01.306,553
2023-11-11T14:41:50,42.805,6.029,CST-1368DR,4112,4373,11269,01.305,553
2023-11-11T14:44:52,42.805,6.029,CST-1368DR,4112,4370,11261,01.308,553
2023-11-11T14:47:53,42.805,6.029,CST-1368DR,4112,4369,11261,01.308,553
2023-11-11T14:50:55,42.805,6.029,CST-1368DR,4112,4371,11264,01.307,553
2023-11-11T14:53:56,42.805,6.029,CST-1368DR,4112,4371,11264,01.307,553
2023-11-11T14:56:58,42.805,6.029,CST-1368DR,4112,4369,11261,01.308,553
2023-11-11T15:00:00,42.805,6.029,CST-1368DR,4112,4371,11265,01.306,553
2023-11-11T15:03:01,42.805,6.029,CST-1368DR,4112,4372,11267,01.306,553
2023-11-11T15:06:03,42.805,6.029,CST-1368DR,4112,4372,11268,01.305,553
2023-11-11T15:09:04,42.805,6.029,CST-1368DR,4112,4371,11266,01.306,553
2023-11-11T15:12:06,42.805,6.029,CST-1368DR,4112,4372,11267,01.306,553
2023-11-11T15:15:07,42.805,6.029,CST-1368DR,4112,4372,11267,01.306,553
2023-11-11T15:18:09,42.805,6.029,CST-1368DR,4112,4372,11267,01.306,553
2023-11-11T15:21:11,42.805,6.029,CST-1368DR,4112,4371,11265,01.306,552
2023-11-11T15:24:12,42.805,6.029,CST-1368DR,4112,4371,11265,01.306,553
2023-11-11T15:27:14,42.805,6.029,CST-1368DR,4112,4374,11274,01.303,553
2023-11-11T15:30:17,42.805,6.029,CST-1368DR,4112,4374,11274,01.303,553
2023-11-11T15:33:18,42.805,6.029,CST-1368DR,4112,4372,11267,01.306,553
2023-11-11T15:36:20,42.805,6.029,CST-1368DR,4112,4372,11267,01.306,553
2023-11-11T15:39:22,42.805,6.029,CST-1368DR,4112,4372,11267,01.306,553
2023-11-11T15:42:23,42.805,6.029,CST-1368DR,4112,4374,11273,01.304,553
2023-11-11T15:45:25,42.805,6.029,CST-1368DR,4112,4374,11272,01.304,553
2023-11-11T15:48:26,42.805,6.029,CST-1368DR,4112,4371,11266,01.306,553
2023-11-11T15:51:28,42.805,6.029,CST-1368DR,4112,4371,11264,01.307,553
2023-11-11T15:54:30,42.805,6.029,CST-1368DR,4112,4373,11269,01.305,553
2023-11-11T15:57:31,42.805,6.029,CST-1368DR,4112,4372,11268,01.305,553
2023-11-11T16:00:33,42.805,6.029,CST-1368DR,4112,4370,11263,01.307,553
2023-11-11T16:03:34,42.805,6.029,CST-1368DR,4112,4371,11265,01.306,553
2023-11-11T16:06:36,42.805,6.029,CST-1368DR,4112,4372,11267,01.306,553
2023-11-11T16:09:37,42.805,6.029,CST-1368DR,4112,4372,11268,01.305,553
2023-11-11T16:12:39,42.805,6.029,CST-1368DR,4112,4371,11265,01.306,553
2023-11-11T16:15:41,42.805,6.029,CST-1368DR,4112,4371,11264,01.307,553
2023-11-11T16:18:42,42.805,6.029,CST-1368DR,4112,4372,11268,01.305,553
2023-11-11T16:21:44,42.805,6.029,CST-1368DR,4112,4372,11267,01.306,552
2023-11-11T16:24:45,42.805,6.029,CST-1368DR,4112,4371,11265,01.306,553
2023-11-11T16:27:47,42.805,6.029,CST-1368DR,4112,4372,11268,01.305,553
2023-11-11T16:30:48,42.805,6.029,CST-1368DR,4112,4371,11266,01.306,553
2023-11-11T16:33:50,42.805,6.029,CST-1368DR,4112,4371,11266,01.306,553
2023-11-11T16:36:52,42.805,6.029,CST-1368DR,4112,4372,11268,01.305,553